Home > Time Zones > World Clock > Weather > Iran > Ahvaz > Past weeks

Flag for Iran Weather past 2 weeks in Ahvaz, Iran

Now
59 °F

Passing clouds.


Feels Like: 59 °F
Forecast: 58 / 74 °F
Wind: No wind

Location: Ahwaz

Current Time: Jan 26, 2015 at 11:04:42 PM

Latest Report: Jan 26, 2015 at 10:30 PM


Visibility: N/A

Pressure: 30.12 "Hg

Humidity: 48%

Dew point: 39 °F

Location of AhvazLocation

Historic Weather in Ahvaz — Graph

°F

Ahvaz temperature yesterday

Maximum temperature yesterday: 73 °F (at 3:30 PM)
Minimum temperature yesterday: 41 °F (at 7:30 AM)
Average temperature yesterday: 59 °F

Past Weeks' High & Low Weather Summary

 TemperatureHumidityPressure
High73 °F (Jan 25, 3:30 PM)93% (Jan 21, 7:00 AM)30.36 "Hg (Jan 21, 7:00 AM)
Low39 °F (Jan 13, 6:55 AM)23% (Jan 26, 3:30 PM)29.98 "Hg (Jan 19, 3:00 PM)
Average56 °F59%30.16 "Hg
* Reported Jan 11 9:30 PM — Jan 26 10:00 PM, Ahvaz, Weather by CustomWeather, © 2014

Note: Actual official high and low records may vary slightly from our data, if they occured in-between our weather recording intervals... More about our weather records

Advertising

Ahvaz weather history for previous 24 hours

 ConditionsComfort  
Time TempWeatherWind HumidityBarometerVisibility
10:00 PM
Jan 26
61 °FPassing clouds.No wind36%30.12 "HgN/A
9:30 PM61 °FPassing clouds.2 mph36%30.12 "HgN/A
9:00 PM61 °FPartly cloudy.5 mph52%30.12 "HgN/A
8:30 PM63 °FOvercast.2 mph49%30.12 "HgN/A
8:00 PM61 °FOvercast.5 mph52%30.12 "HgN/A
7:30 PM63 °FOvercast.2 mph49%30.12 "HgN/A
7:00 PM66 °FPartly cloudy.No wind30%30.09 "HgN/A
6:00 PM66 °FSunny.No wind40%30.15 "Hg10 mi
5:30 PM68 °FSunny.No wind38%30.15 "Hg10 mi
5:00 PM70 °FSunny.No wind27%30.15 "Hg10 mi
4:30 PM72 °FSunny.2 mph25%30.12 "Hg10 mi
4:00 PM72 °FSunny.2 mph27%30.12 "Hg10 mi
3:30 PM73 °FSunny.No wind23%30.12 "Hg10 mi
3:00 PM73 °FClear.5 mph27%30.12 "HgN/A
2:00 PM72 °FClear.No wind31%30.15 "Hg5 mi
1:30 PM72 °FClear.No wind31%30.15 "Hg5 mi
1:00 PM70 °FClear.2 mph35%30.18 "Hg5 mi
12:30 PM68 °FClear.No wind35%30.21 "Hg5 mi
12:00 PM66 °FClear.No wind43%30.21 "Hg5 mi
11:30 AM63 °FClear.No wind42%30.24 "Hg5 mi
11:00 AM63 °FClear.No wind45%30.24 "Hg5 mi
10:00 AM55 °FClear.No wind55%30.24 "Hg4 mi
9:30 AM54 °FClear.No wind54%30.24 "Hg4 mi
9:00 AM52 °FClear.No wind62%30.24 "Hg4 mi
8:30 AM46 °FClear.No wind71%30.24 "Hg4 mi
8:00 AM46 °FClear.No wind82%30.24 "Hg4 mi
7:30 AM43 °FClear.No wind87%30.21 "Hg4 mi
7:00 AM43 °FClear.No wind87%30.21 "Hg4 mi
6:30 AM43 °FClear.No wind87%30.21 "Hg4 mi
5:30 AM45 °FClear.No wind81%30.21 "Hg5 mi
4:30 AM46 °FClear.No wind82%30.18 "Hg5 mi
3:30 AM46 °FClear.No wind82%30.18 "Hg5 mi
2:30 AM50 °FClear.2 mph67%30.21 "Hg5 mi
1:30 AM52 °FClear.No wind67%30.21 "Hg5 mi
12:00 AM50 °FClear.No wind76%30.24 "Hg10 mi
11:30 PM
Jan 25
50 °FClear.No wind76%30.24 "Hg10 mi
11:00 PM52 °FClear.No wind72%30.24 "Hg10 mi
Weather by CustomWeather, © 2014

See weather overviewHow to use our weather pages